Time,TemperatureF,DewpointF,PressureIn,WindDirection,WindDirectionDegrees,WindSpeedMPH,WindSpeedGustMPH,Humidity,HourlyPrecipIn,Conditions,Clouds,dailyrainin,SoftwareType,DateUTC
2013-09-04 00:12:00,71.0,71.0,-100.00,ENE,76,1.0,2.0,99,0.00,,,0.49,,2013-09-04 05:12:00,
2013-09-04 00:23:00,71.0,71.0,-100.00,ENE,76,1.0,2.0,99,0.00,,,0.49,,2013-09-04 05:23:00,
2013-09-04 00:34:00,71.0,71.0,-100.00,ENE,76,1.0,2.0,99,0.00,,,0.49,,2013-09-04 05:34:00,
2013-09-04 00:43:00,71.0,71.0,-100.00,ENE,76,1.0,2.0,99,0.00,,,0.49,,2013-09-04 05:43:00,
2013-09-04 01:12:00,71.0,71.0,-100.00,ENE,78,1.0,2.0,99,0.00,,,0.49,,2013-09-04 06:12:00,
2013-09-04 01:22:00,71.0,71.0,-100.00,ENE,78,1.0,2.0,99,0.00,,,0.49,,2013-09-04 06:22:00,
2013-09-04 01:32:00,71.0,71.0,-100.00,ENE,78,1.0,2.0,99,0.00,,,0.49,,2013-09-04 06:32:00,
2013-09-04 01:42:00,71.0,71.0,-100.00,ENE,78,1.0,2.0,99,0.00,,,0.49,,2013-09-04 06:42:00,
2013-09-04 02:11:00,70.0,70.0,-100.00,North,10,0.0,0.0,99,0.00,,,0.49,,2013-09-04 07:11:00,
2013-09-04 02:22:00,70.0,70.0,-100.00,North,10,0.0,0.0,99,0.00,,,0.49,,2013-09-04 07:22:00,
2013-09-04 02:32:00,70.0,70.0,-100.00,North,10,0.0,0.0,99,0.00,,,0.49,,2013-09-04 07:32:00,
2013-09-04 02:42:00,70.0,70.0,-100.00,North,10,0.0,0.0,99,0.00,,,0.49,,2013-09-04 07:42:00,
2013-09-04 03:12:00,70.0,70.0,-100.00,North,354,0.0,0.0,99,0.00,,,0.49,,2013-09-04 08:12:00,
2013-09-04 03:22:00,70.0,70.0,-100.00,North,354,0.0,0.0,99,0.00,,,0.49,,2013-09-04 08:22:00,
2013-09-04 03:32:00,70.0,70.0,-100.00,North,354,0.0,0.0,99,0.00,,,0.49,,2013-09-04 08:32:00,
2013-09-04 03:43:00,70.0,70.0,-100.00,North,354,0.0,0.0,99,0.00,,,0.49,,2013-09-04 08:43:00,
2013-09-04 04:12:00,70.0,70.0,-100.00,ENE,77,0.0,0.0,99,0.00,,,0.49,,2013-09-04 09:12:00,
2013-09-04 04:22:00,70.0,70.0,-100.00,ENE,77,0.0,0.0,99,0.00,,,0.49,,2013-09-04 09:22:00,
2013-09-04 04:33:00,70.0,70.0,-100.00,ENE,77,0.0,0.0,99,0.00,,,0.49,,2013-09-04 09:33:00,
2013-09-04 04:43:00,70.0,70.0,-100.00,ENE,77,0.0,0.0,99,0.00,,,0.49,,2013-09-04 09:43:00,
2013-09-04 05:12:00,70.0,70.0,-100.00,ESE,103,0.0,0.0,99,0.00,,,0.49,,2013-09-04 10:12:00,
2013-09-04 05:23:00,70.0,70.0,-100.00,ESE,103,0.0,0.0,99,0.00,,,0.49,,2013-09-04 10:23:00,
2013-09-04 05:33:00,70.0,70.0,-100.00,ESE,103,0.0,0.0,99,0.00,,,0.49,,2013-09-04 10:33:00,
2013-09-04 05:42:00,70.0,70.0,-100.00,ESE,103,0.0,0.0,99,0.00,,,0.49,,2013-09-04 10:42:00,
2013-09-04 06:12:00,70.0,70.0,-100.00,NE,43,0.0,1.0,99,0.00,,,0.49,,2013-09-04 11:12:00,
2013-09-04 06:22:00,70.0,70.0,-100.00,NE,43,0.0,1.0,99,0.00,,,0.49,,2013-09-04 11:22:00,
2013-09-04 06:33:00,70.0,70.0,-100.00,NE,43,0.0,1.0,99,0.00,,,0.49,,2013-09-04 11:33:00,
2013-09-04 06:42:00,70.0,70.0,-100.00,NE,43,0.0,1.0,99,0.00,,,0.49,,2013-09-04 11:42:00,
2013-09-04 07:12:00,69.0,69.0,-100.00,ENE,65,0.0,1.0,99,0.00,,,0.49,,2013-09-04 12:12:00,
2013-09-04 07:21:00,69.0,69.0,-100.00,ENE,65,0.0,1.0,99,0.00,,,0.49,,2013-09-04 12:21:00,
2013-09-04 07:32:00,69.0,69.0,-100.00,ENE,65,0.0,1.0,99,0.00,,,0.49,,2013-09-04 12:32:00,
2013-09-04 07:42:00,69.0,69.0,-100.00,ENE,65,0.0,1.0,99,0.00,,,0.49,,2013-09-04 12:42:00,
2013-09-04 08:12:00,74.0,74.0,-100.00,ENE,71,1.0,1.0,99,0.00,,,0.49,,2013-09-04 13:12:00,
2013-09-04 08:22:00,74.0,74.0,-100.00,ENE,71,1.0,1.0,99,0.00,,,0.49,,2013-09-04 13:22:00,
2013-09-04 08:32:00,74.0,74.0,-100.00,ENE,71,1.0,1.0,99,0.00,,,0.49,,2013-09-04 13:32:00,
2013-09-04 08:42:00,74.0,74.0,-100.00,ENE,71,1.0,1.0,99,0.00,,,0.49,,2013-09-04 13:42:00,
2013-09-04 09:21:00,81.0,79.0,-100.00,SSE,159,2.0,4.0,93,0.00,,,0.49,,2013-09-04 14:21:00,
2013-09-04 09:32:00,81.0,79.0,-100.00,SSE,159,2.0,4.0,93,0.00,,,0.49,,2013-09-04 14:32:00,
2013-09-04 09:42:00,81.0,79.0,-100.00,SSE,159,2.0,4.0,93,0.00,,,0.49,,2013-09-04 14:42:00,
2013-09-04 10:22:00,88.0,78.0,-100.00,East,97,2.0,5.0,72,0.00,,,0.49,,2013-09-04 15:22:00,
2013-09-04 10:33:00,88.0,78.0,-100.00,East,97,2.0,5.0,72,0.00,,,0.49,,2013-09-04 15:33:00,
2013-09-04 10:43:00,88.0,78.0,-100.00,East,97,2.0,5.0,72,0.00,,,0.49,,2013-09-04 15:43:00,
2013-09-04 11:12:00,89.0,77.0,-100.00,East,100,2.0,6.0,69,0.00,,,0.49,,2013-09-04 16:12:00,
2013-09-04 11:23:00,89.0,77.0,-100.00,East,100,2.0,6.0,69,0.00,,,0.49,,2013-09-04 16:23:00,
2013-09-04 11:34:00,89.0,77.0,-100.00,East,100,2.0,6.0,69,0.00,,,0.49,,2013-09-04 16:34:00,
2013-09-04 11:43:00,89.0,77.0,-100.00,East,100,2.0,6.0,69,0.00,,,0.49,,2013-09-04 16:43:00,
2013-09-04 12:13:00,92.0,75.0,-100.00,SSW,211,3.0,6.0,58,0.00,,,0.49,,2013-09-04 17:13:00,
2013-09-04 12:23:00,92.0,75.0,-100.00,SSW,211,3.0,6.0,58,0.00,,,0.49,,2013-09-04 17:23:00,
2013-09-04 12:34:00,92.0,75.0,-100.00,SSW,211,3.0,6.0,58,0.00,,,0.49,,2013-09-04 17:34:00,
2013-09-04 12:42:00,92.0,75.0,-100.00,SSW,211,3.0,6.0,58,0.00,,,0.49,,2013-09-04 17:42:00,
2013-09-04 13:13:00,94.0,76.0,-100.00,ESE,122,2.0,6.0,56,0.00,,,0.49,,2013-09-04 18:13:00,
2013-09-04 13:22:00,94.0,76.0,-100.00,ESE,122,2.0,6.0,56,0.00,,,0.49,,2013-09-04 18:22:00,
2013-09-04 13:32:00,94.0,76.0,-100.00,ESE,122,2.0,6.0,56,0.00,,,0.49,,2013-09-04 18:32:00,
2013-09-04 13:42:00,94.0,76.0,-100.00,ESE,122,2.0,6.0,56,0.00,,,0.49,,2013-09-04 18:42:00,
2013-09-04 14:11:00,89.0,77.0,-100.00,SSW,213,4.0,9.0,68,0.00,,,0.49,,2013-09-04 19:11:00,
2013-09-04 14:22:00,89.0,77.0,-100.00,SSW,213,4.0,9.0,68,0.00,,,0.49,,2013-09-04 19:22:00,
2013-09-04 14:32:00,89.0,77.0,-100.00,SSW,213,4.0,9.0,68,0.00,,,0.49,,2013-09-04 19:32:00,
2013-09-04 14:42:00,89.0,77.0,-100.00,SSW,213,4.0,9.0,68,0.00,,,0.49,,2013-09-04 19:42:00,
2013-09-04 15:11:00,92.0,77.0,-100.00,WSW,256,5.0,10.0,61,0.00,,,0.30,,2013-09-04 20:11:00,
2013-09-04 15:22:00,92.0,77.0,-100.00,WSW,256,5.0,10.0,61,0.00,,,0.30,,2013-09-04 20:22:00,
2013-09-04 15:32:00,92.0,77.0,-100.00,WSW,256,5.0,10.0,61,0.00,,,0.30,,2013-09-04 20:32:00,
2013-09-04 15:43:00,92.0,77.0,-100.00,WSW,256,5.0,10.0,61,0.00,,,0.30,,2013-09-04 20:43:00,
2013-09-04 16:22:00,80.0,71.0,-100.00,SSW,192,4.0,12.0,73,0.67,,,0.71,,2013-09-04 21:22:00,
2013-09-04 16:34:00,80.0,71.0,-100.00,SSW,192,4.0,12.0,73,0.67,,,0.71,,2013-09-04 21:34:00,
2013-09-04 16:44:00,80.0,71.0,-100.00,SSW,192,4.0,12.0,73,0.67,,,0.71,,2013-09-04 21:44:00,
2013-09-04 17:14:00,76.0,75.0,-100.00,ENE,73,0.0,11.0,97,0.36,,,1.07,,2013-09-04 22:14:00,
2013-09-04 17:23:00,76.0,75.0,-100.00,ENE,73,0.0,11.0,97,0.36,,,1.07,,2013-09-04 22:23:00,
2013-09-04 17:33:00,76.0,75.0,-100.00,ENE,73,0.0,11.0,97,0.36,,,1.07,,2013-09-04 22:33:00,
2013-09-04 17:43:00,76.0,75.0,-100.00,ENE,73,0.0,11.0,97,0.36,,,1.07,,2013-09-04 22:43:00,
2013-09-04 18:13:00,76.0,75.0,-100.00,SSE,164,1.0,3.0,98,0.00,,,1.07,,2013-09-04 23:13:00,
2013-09-04 18:22:00,76.0,75.0,-100.00,SSE,164,1.0,3.0,98,0.00,,,1.07,,2013-09-04 23:22:00,
2013-09-04 18:34:00,76.0,75.0,-100.00,SSE,164,1.0,3.0,98,0.00,,,1.07,,2013-09-04 23:34:00,
2013-09-04 18:42:00,76.0,75.0,-100.00,SSE,164,1.0,3.0,98,0.00,,,1.07,,2013-09-04 23:42:00,
2013-09-04 19:12:00,76.0,75.0,-100.00,SSE,164,0.0,1.0,98,0.00,,,1.04,,2013-09-05 00:12:00,
2013-09-04 19:22:00,76.0,75.0,-100.00,SSE,164,0.0,1.0,98,0.00,,,1.04,,2013-09-05 00:22:00,
2013-09-04 19:32:00,76.0,75.0,-100.00,SSE,164,0.0,1.0,98,0.00,,,1.04,,2013-09-05 00:32:00,
2013-09-04 19:42:00,76.0,75.0,-100.00,SSE,164,0.0,1.0,98,0.00,,,1.04,,2013-09-05 00:42:00,
2013-09-04 20:12:00,75.0,74.0,-100.00,SSE,162,0.0,0.0,98,0.00,,,1.04,,2013-09-05 01:12:00,
2013-09-04 20:22:00,75.0,74.0,-100.00,SSE,162,0.0,0.0,98,0.00,,,1.04,,2013-09-05 01:22:00,
2013-09-04 20:32:00,75.0,74.0,-100.00,SSE,162,0.0,0.0,98,0.00,,,1.04,,2013-09-05 01:32:00,
2013-09-04 20:42:00,75.0,74.0,-100.00,SSE,162,0.0,0.0,98,0.00,,,1.04,,2013-09-05 01:42:00,
2013-09-04 21:12:00,75.0,74.0,-100.00,East,84,0.0,1.0,98,0.00,,,1.04,,2013-09-05 02:12:00,
2013-09-04 21:22:00,75.0,74.0,-100.00,East,84,0.0,1.0,98,0.00,,,1.04,,2013-09-05 02:22:00,
2013-09-04 21:32:00,75.0,74.0,-100.00,East,84,0.0,1.0,98,0.00,,,1.04,,2013-09-05 02:32:00,
2013-09-04 21:42:00,75.0,74.0,-100.00,East,84,0.0,1.0,98,0.00,,,1.04,,2013-09-05 02:42:00,
2013-09-04 22:12:00,74.0,74.0,-100.00,ESE,115,0.0,1.0,99,0.00,,,1.03,,2013-09-05 03:12:00,
2013-09-04 22:22:00,74.0,74.0,-100.00,ESE,115,0.0,1.0,99,0.00,,,1.03,,2013-09-05 03:22:00,
2013-09-04 22:34:00,74.0,74.0,-100.00,ESE,115,0.0,1.0,99,0.00,,,1.03,,2013-09-05 03:34:00,
2013-09-04 22:45:00,74.0,74.0,-100.00,ESE,115,0.0,1.0,99,0.00,,,1.03,,2013-09-05 03:45:00,
2013-09-04 23:13:00,74.0,74.0,-100.00,ENE,58,0.0,1.0,99,0.00,,,1.03,,2013-09-05 04:13:00,
2013-09-04 23:24:00,74.0,74.0,-100.00,ENE,58,0.0,1.0,99,0.00,,,1.03,,2013-09-05 04:24:00,
2013-09-04 23:34:00,74.0,74.0,-100.00,ENE,58,0.0,1.0,99,0.00,,,1.03,,2013-09-05 04:34:00,
2013-09-04 23:44:00,74.0,74.0,-100.00,ENE,58,0.0,1.0,99,0.00,,,1.03,,2013-09-05 04:44:00,